Location: Paderno d�Adda
(45.6667°N, 9.4333°E)
Time: 13:50:47
(UTC+00:00)

Cosmos 1464 Rocket - Pass Details

Date: 19 September 2020
Orbit: 953 x 1000 km, 82.9° (Epoch: 29 October)

Event Time Altitude Azimuth Distance (km) Brightness Sun altitude
Rises 18:22:25 0° 172° (S) 3,615 6.8 -10.8°
Reaches altitude 10° 18:24:56 10° 168° (SSE) 2,674 6.1 -11.2°
Maximum altitude 18:30:52 56° 92° (E) 1,125 4.0 -12.2°
Drops below altitude 10° 18:36:53 10° 16° (NNE) 2,708 6.3 -13.2°
Sets 18:39:27 0° 12° (NNE) 3,665 7.1 -13.6°
